Weather History for KMZZ - January, 2014

Change the Weather History Date:

Thursday, January 2, 2014

  Actual Average (KMIE) Record (KMIE)
Temperature  
Mean Temperature 8 °F 27 °F  
Max Temperature 78 °F 34 °F 60 °F (2000)
Min Temperature 0 °F 20 °F -7 °F (1974)
Degree Days  
Heating Degree Days 56 38  
Month to date heating degree days 76  
Since 1 July heating degree days 2274  
Cooling Degree Days 0 0  
Month to date cooling degree days 0  
Year to date cooling degree days 0  
Moisture  
Dew Point 8 °F    
Average Humidity 79    
Maximum Humidity 86    
Minimum Humidity 63    
Precipitation  
Precipitation 0.00 in 0.08 in 0.59 in (1965)
Month to date precipitation 0.17  
Year to date precipitation 0.17  
Sea Level Pressure  
Sea Level Pressure 30.07 in    
Wind  
Wind Speed 13 mph (NNE)    
Max Wind Speed 21 mph    
Max Gust Speed 26 mph    
Visibility 5 miles    
Events Snow    
T = Trace of Precipitation, MM = Missing Value Source: NWS Daily Summary

Daily Weather History Graph

Daily Weather History Graph

Search for Another Location

Airport or City:

Trip Planner

Search our weather history database for the weather conditions in past years. The results will help you decide how hot, cold, wet, or windy it might be!

Date:

Astronomy

Jan. 02, 2014 Rise Set
Actual Time 8:06 AM EST 5:27 PM EST
Civil Twilight 7:35 AM EST 5:58 PM EST
Nautical Twilight 7:01 AM EST 6:32 PM EST
Astronomical Twilight 6:28 AM EST 7:05 PM EST
Moon 8:46 AM EST (1/2) 7:24 PM EST (1/2)
Length of Visible Light 10h 22m
Length of Day
9h 21m
New Moon, 2% of the Moon is Illuminated
Jan 2
New Moon
Jan 7
First Quarter
Jan 15
Full
Jan 24
Last Quarter
Jan 30
New

Hourly Weather History & Observations

Time (EST) Temp. Windchill Dew Point Humidity Pressure Visibility Wind Dir Wind Speed Gust Speed Precip Events Conditions
12:15 AM 17.6 °F 5.7 °F 14.0 °F 86% 30.06 in 5.0 mi ENE 10.4 mph - N/A Snow Light Snow
12:35 AM 17.6 °F 6.4 °F 13.8 °F 85% 30.06 in 5.0 mi ENE 9.2 mph 17.3 mph N/A Snow Light Snow
12:55 AM 17.6 °F 5.0 °F 13.6 °F 84% 30.05 in 4.0 mi ENE 11.5 mph - N/A Snow Light Snow
1:15 AM 17.4 °F 4.1 °F 13.6 °F 85% 30.04 in 4.0 mi ENE 12.7 mph 16.1 mph N/A   Overcast
1:35 AM 17.6 °F 7.3 °F 13.8 °F 85% 30.04 in 3.0 mi ENE 8.1 mph - N/A Snow Light Snow
1:55 AM 17.6 °F 6.4 °F 14.0 °F 86% 30.03 in 4.0 mi ENE 9.2 mph - N/A Snow Light Snow
2:15 AM 17.6 °F 5.7 °F 14.0 °F 86% 30.03 in 4.0 mi ENE 10.4 mph - N/A   Overcast
2:35 AM 17.6 °F 5.0 °F 13.8 °F 85% 30.02 in 5.0 mi NE 11.5 mph - N/A Snow Light Snow
2:55 AM 17.6 °F 4.3 °F 13.6 °F 84% 30.01 in 4.0 mi ENE 12.7 mph 17.3 mph N/A Snow Light Snow
3:15 AM 17.4 °F 3.5 °F 13.5 °F 84% 30.01 in 4.0 mi ENE 13.8 mph - N/A Snow Light Snow
3:35 AM 17.2 °F 3.9 °F 13.3 °F 84% 30.00 in 4.0 mi ENE 12.7 mph 19.6 mph N/A Snow Light Snow
3:55 AM 17.1 °F 3.0 °F 13.3 °F 85% 29.98 in 3.0 mi ENE 13.8 mph 18.4 mph N/A Snow Light Snow
4:15 AM 17.1 °F 3.6 °F 13.3 °F 85% 29.96 in 3.0 mi ENE 12.7 mph - N/A Snow Light Snow
4:35 AM 17.1 °F 3.6 °F 13.3 °F 85% 29.96 in 4.0 mi ENE 12.7 mph 19.6 mph N/A Snow Light Snow
4:55 AM 17.1 °F 3.6 °F 13.1 °F 84% 29.96 in 4.0 mi ENE 12.7 mph - N/A Snow Light Snow
5:15 AM 17.2 °F 5.2 °F 13.5 °F 85% 29.96 in 2.5 mi ENE 10.4 mph - N/A Snow Light Snow
5:35 AM 17.1 °F 5.0 °F 13.3 °F 85% 29.95 in 2.0 mi ENE 10.4 mph 17.3 mph N/A Snow Light Snow
5:55 AM 16.7 °F 3.8 °F 13.3 °F 86% 29.95 in 2.5 mi NE 11.5 mph - N/A Snow Light Snow
6:15 AM 16.7 °F 2.6 °F 13.1 °F 86% 29.94 in 3.0 mi NE 13.8 mph - N/A Snow Light Snow
6:35 AM 16.7 °F 2.6 °F 13.3 °F 86% 29.94 in 2.5 mi NE 13.8 mph 18.4 mph N/A Snow Light Snow
6:55 AM 16.7 °F 3.2 °F 13.3 °F 86% 29.95 in 1.8 mi NE 12.7 mph - N/A Snow Light Snow
7:15 AM 16.7 °F 3.2 °F 13.1 °F 86% 29.95 in 1.5 mi NNE 12.7 mph - N/A Snow Light Snow
7:35 AM 16.5 °F 0.8 °F 12.9 °F 86% 29.95 in 1.2 mi NNE 17.3 mph 21.9 mph N/A Snow Light Snow
7:55 AM 16.3 °F 1.0 °F 12.4 °F 84% 29.95 in 2.5 mi NE 16.1 mph 19.6 mph N/A Snow Light Snow
8:15 AM 16.0 °F 0.1 °F 12.0 °F 84% 29.95 in 0.8 mi NE 17.3 mph 20.7 mph N/A Snow Light Snow
8:35 AM 15.4 °F 0.4 °F 11.3 °F 84% 29.96 in 0.8 mi NNE 15.0 mph - N/A Snow Light Snow
8:55 AM 14.9 °F -2.3 °F 11.1 °F 85% 29.96 in 0.8 mi NNE 19.6 mph 25.3 mph N/A Snow Light Snow
9:15 AM 14.7 °F -1.6 °F 10.4 °F 83% 29.97 in 1.0 mi NE 17.3 mph 26.5 mph N/A Snow Light Snow
9:35 AM 14.5 °F -0.7 °F 10.2 °F 83% 29.98 in 1.2 mi NNE 15.0 mph 25.3 mph N/A Snow Light Snow
9:55 AM 14.9 °F 0.9 °F 10.2 °F 82% 29.99 in 2.5 mi NNE 12.7 mph 24.2 mph N/A   Haze
10:15 AM 15.3 °F -1.3 °F 10.2 °F 80% 29.99 in 1.5 mi NNE 18.4 mph 24.2 mph N/A   Haze
10:35 AM 15.3 °F -0.9 °F 10.2 °F 80% 29.99 in 1.2 mi NNE 17.3 mph 20.7 mph N/A Snow Light Snow
10:55 AM 15.3 °F -0.9 °F 10.0 °F 80% 30.00 in 2.0 mi NE 17.3 mph 23.0 mph N/A   Haze
11:15 AM 15.6 °F 0.1 °F 10.0 °F 79% 30.01 in 2.5 mi NNE 16.1 mph 25.3 mph N/A   Haze
11:35 AM 15.8 °F -0.6 °F 10.2 °F 79% 30.01 in 3.0 mi North 18.4 mph 26.5 mph N/A   Haze
11:55 AM 15.8 °F 1.4 °F 10.2 °F 79% 30.00 in 1.5 mi NNE 13.8 mph 26.5 mph N/A Snow Light Snow
12:15 PM 15.8 °F 0.3 °F 10.2 °F 79% 30.00 in 1.8 mi NNE 16.1 mph 20.7 mph N/A Snow Light Snow
12:35 PM 15.6 °F -1.8 °F 10.0 °F 79% 29.99 in 2.5 mi NNE 20.7 mph 24.2 mph N/A Snow Light Snow
12:55 PM 15.6 °F -1.8 °F 9.7 °F 77% 30.00 in 4.0 mi NNE 20.7 mph 25.3 mph N/A Snow Light Snow
1:15 PM 15.4 °F -1.6 °F 9.3 °F 77% 30.01 in 3.0 mi NNE 19.6 mph 26.5 mph N/A Snow Light Snow
1:35 PM 15.3 °F -1.3 °F 9.3 °F 77% 30.00 in 2.0 mi NNE 18.4 mph 26.5 mph N/A Snow Light Snow
1:55 PM 15.4 °F -1.1 °F 9.7 °F 78% 30.01 in 2.0 mi North 18.4 mph 26.5 mph N/A Snow Light Snow
2:15 PM 15.4 °F -0.6 °F 9.9 °F 79% 30.01 in 3.0 mi North 17.3 mph - N/A Snow Light Snow
2:35 PM 15.4 °F -1.6 °F 9.7 °F 78% 30.02 in 1.8 mi North 19.6 mph - N/A Snow Light Snow
2:55 PM 15.3 °F -1.3 °F 9.5 °F 78% 30.04 in 2.5 mi North 18.4 mph 25.3 mph N/A Snow Light Snow
3:15 PM 14.9 °F -0.3 °F 9.5 °F 79% 30.05 in 2.5 mi North 15.0 mph 25.3 mph N/A Snow Light Snow
3:35 PM 14.7 °F -1.6 °F 9.3 °F 79% 30.06 in 2.0 mi North 17.3 mph 23.0 mph N/A Snow Light Snow
3:55 PM 14.5 °F -0.7 °F 9.1 °F 79% 30.08 in 2.5 mi North 15.0 mph 19.6 mph N/A Snow Light Snow
4:15 PM 14.4 °F -0.4 °F 9.1 °F 80% 30.09 in 2.5 mi North 13.8 mph 21.9 mph N/A Snow Light Snow
4:35 PM 14.0 °F -3.4 °F 8.4 °F 78% 30.10 in 3.0 mi North 19.6 mph 23.0 mph N/A Snow Light Snow
4:55 PM 13.8 °F -1.7 °F 7.9 °F 77% 30.12 in 3.0 mi NNW 15.0 mph 23.0 mph N/A Snow Light Snow
5:15 PM 13.3 °F -2.4 °F 7.5 °F 78% 30.13 in 5.0 mi North 15.0 mph 20.7 mph N/A   Haze
5:35 PM 12.9 °F -2.8 °F 7.0 °F 77% 30.14 in 5.0 mi North 15.0 mph 20.7 mph N/A   Haze
5:55 PM 12.7 °F -2.5 °F 6.4 °F 76% 30.16 in 7.0 mi North 13.8 mph 23.0 mph N/A   Overcast
6:15 PM 12.4 °F -1.6 °F 5.9 °F 75% 30.18 in 7.0 mi North 11.5 mph 17.3 mph N/A   Overcast
6:35 PM 12.2 °F -1.0 °F 5.0 °F 73% 30.19 in 10.0 mi North 10.4 mph 19.6 mph N/A   Overcast
6:55 PM 12.2 °F -3.1 °F 3.9 °F 69% 30.21 in 10.0 mi North 13.8 mph 18.4 mph N/A   Overcast
7:15 PM 12.2 °F -3.7 °F 3.4 °F 68% 30.21 in 10.0 mi North 15.0 mph 21.9 mph N/A   Overcast
7:35 PM 12.0 °F -3.4 °F 2.5 °F 66% 30.22 in 10.0 mi North 13.8 mph 18.4 mph N/A   Overcast
7:55 PM 11.8 °F -0.7 °F 2.3 °F 66% 30.24 in 10.0 mi North 9.2 mph 18.4 mph N/A   Overcast
8:15 PM 11.8 °F -1.5 °F 1.8 °F 64% 30.26 in 10.0 mi North 10.4 mph 16.1 mph N/A   Overcast
8:35 PM 11.5 °F -1.1 °F 1.2 °F 63% 30.26 in 10.0 mi North 9.2 mph - N/A   Overcast
8:55 PM 10.6 °F 1.0 °F 0.9 °F 65% 30.26 in 10.0 mi North 5.8 mph - N/A   Scattered Clouds
9:15 PM 9.9 °F 0.2 °F 0.5 °F 66% 30.27 in 10.0 mi North 5.8 mph - N/A   Clear
9:35 PM 8.8 °F 0.4 °F -0.2 °F 67% 30.27 in 10.0 mi NNW 4.6 mph - N/A   Clear
9:55 PM 7.0 °F 0.1 °F -1.3 °F 69% 30.27 in 10.0 mi North 3.5 mph - N/A   Clear
10:15 PM 5.2 °F -1.9 °F -2.6 °F 70% 30.28 in 10.0 mi North 3.5 mph - N/A   Clear
10:35 PM 4.8 °F -2.3 °F -2.6 °F 72% 30.28 in 10.0 mi North 3.5 mph - N/A   Clear
10:55 PM 4.1 °F -3.2 °F -3.1 °F 72% 30.28 in 10.0 mi NNW 3.5 mph - N/A   Clear
11:15 PM 1.6 °F -8.0 °F -4.7 °F 75% 30.30 in 10.0 mi NW 4.6 mph - N/A   Clear
11:35 PM -0.0 °F -14.2 °F -6.2 °F 75% 30.32 in 10.0 mi NW 8.1 mph - N/A   Clear
11:55 PM 1.6 °F -11.0 °F -5.1 °F 74% 30.33 in 10.0 mi NW 6.9 mph - N/A   Clear